Stations météo

Publicité
Langres, France (7283): Température de l'air & dewpoint: 13.03.2019 15:00:00 - 19.03.2019 15:00:00 (CET)Langres, France (7283): Température de l'air 5cm: 13.03.2019 15:00:00 - 19.03.2019 15:00:00 (CET)Langres, France (7283): Vitesse du vent & gusts: 13.03.2019 15:00:00 - 19.03.2019 15:00:00 (CET)Langres, France (7283): Direction du vent: 13.03.2019 15:00:00 - 19.03.2019 15:00:00 (CET)Langres, France (7283): reduced air pressure: 13.03.2019 15:00:00 - 19.03.2019 15:00:00 (CET)Langres, France (7283): visibility: 13.03.2019 15:00:00 - 19.03.2019 15:00:00 (CET)Langres, France (7283): Ensoleillement: 13.03.2019 15:00:00 - 19.03.2019 15:00:00 (CET)Langres, France (7283): Quantités de précipitations: 13.03.2019 15:00:00 - 19.03.2019 15:00:00 (CET)
Date & Time tt [°C] td [°C] tt 5cm [°C] ff [km/h] ff [knt] fx [km/h] fx [knt] dd ppp [hPa] vv [km] sd [min] rr [mm]
19.03.2019 15:00:00 8,9 -2,4 11,0 10 5 23 13 N 1028,0 20 56 0,0
19.03.2019 14:00:00 8,6 -1,5 12,5 9 5 22 12 N 1027,9 20 60 0,0
19.03.2019 13:00:00 7,7 -1,5 10,6 9 5 21 11 NNE 1028,1 20 55 0,0
19.03.2019 12:00:00 7,4 0,6 9,9 10 6 21 11 ENE 1028,1 20 53 0,0
19.03.2019 11:00:00 6,3 1,4 6,8 8 5 18 10 NNE 1028,2 20 51 0,0
19.03.2019 10:00:00 4,3 1,2 6,9 10 5 21 12 NE 1028,2 19 56 0,0
19.03.2019 09:00:00 3,3 0,9 4,6 7 4 21 11 NE 1027,7 19 60 0,0
19.03.2019 08:00:00 2,2 0,3 -0,6 8 4 16 9 NNE 1027,7 20 53 0,0
19.03.2019 07:00:00 0,5 -0,8 -1,2 6 3 14 7 NNW 1027,5 20 0 0,0
19.03.2019 06:00:00 0,9 -0,6 -1,1 5 3 12 7 NNW 1026,8 20 0 0,0
19.03.2019 05:00:00 1,1 -0,4 -0,2 8 4 17 9 NW 1026,3 20 0 0,0
19.03.2019 04:00:00 1,4 -0,4 0,0 9 5 14 7 NW 1025,8 20 0 0,0
19.03.2019 03:00:00 1,9 -0,2 0,4 8 4 15 8 NW 1025,5 20 0 0,0
19.03.2019 02:00:00 2,1 0,0 0,1 8 5 15 8 NW 1025,7 20 0 0,0
19.03.2019 01:00:00 2,0 -0,1 -0,5 9 5 18 10 NW 1025,6 20 0 0,0
19.03.2019 00:00:00 2,6 0,0 -1,1 6 4 8 5 WNW 1025,4 20 0 0,0
18.03.2019 23:00:00 1,5 0,0 -1,3 4 2 11 6 W 1025,5 20 0 0,0
18.03.2019 22:00:00 2,6 0,5 0,9 7 4 14 8 W 1025,4 20 0 0,0
18.03.2019 21:00:00 2,9 0,8 1,0 4 2 9 5 NE 1025,0 20 0 0,0
18.03.2019 20:00:00 3,4 1,3 0,7 3 1 6 3 WSW 1024,3 20 0 0,0
18.03.2019 19:00:00 4,4 0,9 1,6 2 1 11 6 W 1023,6 20 12 0,0
18.03.2019 18:00:00 5,7 2,3 5,1 6 4 18 10 W 1022,7 20 4 0,0
18.03.2019 17:00:00 4,8 2,0 2,6 5 3 22 12 WSW 1022,6 15 1 1,4
18.03.2019 16:00:00 6,6 0,1 7,3 10 5 18 10 WNW 1022,0 20 31 0,0
18.03.2019 15:00:00 6,1 2,0 5,2 9 5 27 15 W 1022,2 20 9 0,0
18.03.2019 14:00:00 6,2 2,3 4,7 13 7 29 16 W 1022,3 20 11 0,0
18.03.2019 13:00:00 5,1 1,9 5,4 9 5 19 10 WSW 1022,7 20 10 0,0
18.03.2019 12:00:00 4,9 2,6 3,6 12 6 24 13 WSW 1022,6 20 30 0,0
18.03.2019 11:00:00 2,9 2,0 2,0 11 6 21 11 WSW 1023,1 19 0 0,0
18.03.2019 10:00:00 1,9 1,2 1,5 10 6 20 11 WSW 1022,9 3,0 0 0,0
18.03.2019 09:00:00 1,6 0,7 1,1 11 6 24 13 WSW 1022,1 4,0 0 0,0
18.03.2019 08:00:00 1,5 0,6 0,3 13 7 24 13 WSW 1021,5 3,5 0 0,0
18.03.2019 07:00:00 1,3 0,4 0,1 10 5 24 13 WSW 1020,8 9 0 0,0
18.03.2019 06:00:00 1,2 0,2 0,1 16 9 24 13 WSW 1020,3 20 0 0,0
18.03.2019 05:00:00 0,8 -0,1 -0,1 9 5 21 11 WSW 1019,8 20 0 0,0
18.03.2019 04:00:00 0,7 -0,2 0,0 13 7 19 11 W 1019,5 20 0 0,0
18.03.2019 03:00:00 0,8 -0,1 0,0 12 6 21 12 WSW 1019,3 20 0 0,0
18.03.2019 02:00:00 0,4 -0,5 0,1 12 7 26 14 W 1019,4 20 0 0,8
18.03.2019 01:00:00 0,1 -0,9 0,1 7 4 17 9 WSW 1019,0 9 0 3,4
18.03.2019 00:00:00 0,4 -0,9 0,1 16 9 29 16 W 1019,0 3,1 0 1,4
17.03.2019 23:00:00 1,9 0,0 0,1 9 5 18 10 SSW 1018,1 20 0 0,0
17.03.2019 22:00:00 1,7 -0,6 0,4 8 5 18 10 SW 1017,9 20 0 0,0
17.03.2019 21:00:00 2,0 -0,6 0,5 10 6 29 16 WSW 1017,2 20 0 0,0
17.03.2019 20:00:00 2,3 -0,8 0,9 18 10 61 33 W 1016,9 20 0 0,2
17.03.2019 19:00:00 4,5 0,6 3,0 23 12 41 22 W 1015,3 20 8 0,0
17.03.2019 18:00:00 5,1 1,0 4,2 23 12 47 25 W 1015,0 14 20 0,0
17.03.2019 17:00:00 4,9 0,8 4,2 23 12 53 29 WSW 1013,4 20 15 0,2
17.03.2019 16:00:00 6,6 2,7 4,6 28 15 70 38 W 1012,3 20 50 0,2
17.03.2019 15:00:00 5,5 2,8 3,7 29 16 64 35 W 1011,4 20 27 0,8
17.03.2019 14:00:00 5,7 3,7 3,8 20 11 35 19 WSW 1011,1 20 0 0,2
17.03.2019 13:00:00 4,0 2,3 3,6 20 11 54 29 W 1012,0 19 0 1,0
17.03.2019 12:00:00 6,1 4,1 5,6 29 16 55 30 W 1010,4 14 0 2,0
17.03.2019 11:00:00 7,9 5,9 7,5 23 12 55 30 SW 1008,6 7 8 0,2
17.03.2019 10:00:00 9,0 4,8 7,8 25 14 48 26 SW 1007,8 20 1 0,0
17.03.2019 09:00:00 7,7 3,9 7,0 25 14 52 28 SW 1007,9 20 26 0,0
17.03.2019 08:00:00 6,7 3,1 5,8 28 15 56 30 WSW 1008,3 20 38 0,0
17.03.2019 07:00:00 6,4 2,7 5,9 29 16 57 31 WSW 1008,5 20 0 0,0
17.03.2019 06:00:00 7,7 1,3 6,7 20 11 37 20 WSW 1008,0 20 0 0,0
17.03.2019 05:00:00 8,6 -0,7 6,6 16 9 39 21 SW 1007,6 20 0 0,0
17.03.2019 04:00:00 7,6 -1,1 5,6 12 6 29 16 SW 1008,0 20 0 0,0
17.03.2019 03:00:00 8,7 -1,4 6,0 13 7 26 14 SW 1008,2 20 0 0,0
17.03.2019 02:00:00 8,9 0,8 7,4 13 7 31 17 SW 1008,5 20 0 0,0
17.03.2019 01:00:00 10,3 1,9 9,0 18 10 34 18 SW 1008,8 20 0 0,0
17.03.2019 00:00:00 11,3 2,8 9,5 20 11 38 20 SW 1009,4 20 0 0,0
16.03.2019 23:00:00 10,7 4,6 9,5 21 11 39 21 SSW 1010,2 20 0 0,0
16.03.2019 22:00:00 10,5 5,3 9,0 23 13 41 22 SSW 1010,5 20 0 0,0
16.03.2019 21:00:00 9,9 4,7 9,0 23 12 41 22 SSW 1011,0 20 0 0,0
16.03.2019 20:00:00 10,4 4,7 9,3 23 12 39 21 SSW 1011,5 20 0 0,0
16.03.2019 19:00:00 10,6 4,9 9,5 18 10 31 17 SSW 1011,9 20 18 0,0
16.03.2019 18:00:00 12,3 4,5 12,0 14 7 35 19 SW 1012,3 20 60 0,0
16.03.2019 17:00:00 12,5 4,5 12,2 21 11 40 22 SW 1012,9 20 60 0,0
16.03.2019 16:00:00 11,6 4,6 13,3 24 13 43 23 SW 1014,2 20 56 0,0
16.03.2019 15:00:00 12,4 5,5 11,9 20 11 42 23 SW 1014,8 20 34 0,0
16.03.2019 14:00:00 11,0 5,1 11,4 23 12 44 24 SW 1016,0 20 15 0,0
16.03.2019 13:00:00 10,1 5,1 11,2 19 11 40 22 SW 1017,4 20 5 0,0
16.03.2019 12:00:00 10,0 5,0 9,4 24 13 48 26 SW 1018,2 20 20 0,0
16.03.2019 11:00:00 8,2 5,5 7,7 22 12 40 22 WSW 1019,0 20 0 0,0
16.03.2019 10:00:00 7,4 5,0 6,6 19 11 40 22 SW 1019,4 20 0 0,0
16.03.2019 09:00:00 6,5 4,8 6,3 18 10 44 24 SW 1019,8 19 0 0,0
16.03.2019 08:00:00 6,7 4,7 6,2 25 13 41 22 WSW 1019,8 20 0 0,0
16.03.2019 07:00:00 7,4 5,4 7,2 22 12 42 23 WSW 1019,3 20 0 0,0
16.03.2019 06:00:00 7,8 5,8 7,5 21 12 39 21 WSW 1019,3 20 0 0,0
16.03.2019 05:00:00 8,2 5,7 7,9 18 10 39 21 WSW 1019,5 20 0 0,0
16.03.2019 04:00:00 8,4 5,9 8,0 23 12 44 24 WSW 1019,5 20 0 0,0
16.03.2019 03:00:00 8,7 6,7 8,5 22 12 44 24 WSW 1019,7 20 0 0,0
16.03.2019 02:00:00 9,0 6,8 8,7 23 12 44 24 WSW 1020,0 20 0 0,0
16.03.2019 01:00:00 9,0 7,1 8,4 24 13 41 22 WSW 1020,0 20 0 0,0
16.03.2019 00:00:00 9,1 7,4 8,4 22 12 44 24 WSW 1020,2 20 0 0,0
15.03.2019 23:00:00 9,1 7,4 8,3 21 12 42 23 WSW 1020,1 20 0 0,0
15.03.2019 22:00:00 9,1 7,5 8,3 23 12 40 22 SW 1019,9 20 0 0,0
15.03.2019 21:00:00 8,9 7,5 8,2 22 12 43 23 WSW 1019,5 12 0 0,0
15.03.2019 20:00:00 8,9 7,7 8,3 21 11 46 25 SW 1019,1 20 0 0,2
15.03.2019 19:00:00 9,0 7,9 8,6 20 11 37 20 WSW 1018,9 3,3 0 0,6
15.03.2019 18:00:00 9,1 7,9 8,7 21 12 42 23 WSW 1018,2 4,4 0 -
15.03.2019 17:00:00 9,2 8,0 9,0 22 12 45 24 WSW 1017,9 3,0 0 0,4
15.03.2019 16:00:00 9,7 8,0 9,1 24 13 48 26 WSW 1017,4 17 0 0,0
15.03.2019 15:00:00 10,0 7,9 9,4 29 16 53 29 WSW 1017,0 20 0 0,2
15.03.2019 14:00:00 9,7 8,3 9,5 22 12 48 26 WSW 1017,4 9 0 0,2
15.03.2019 13:00:00 10,3 8,4 9,3 26 14 60 33 WSW 1017,1 20 0 0,0
15.03.2019 12:00:00 9,7 8,0 9,1 31 17 62 33 WSW 1016,7 14 0 0,2
15.03.2019 11:00:00 9,4 8,2 8,8 26 14 56 30 WSW 1016,6 6 0 0,0
15.03.2019 10:00:00 9,2 7,6 8,6 32 17 62 34 WSW 1016,1 12 0 0,0
15.03.2019 09:00:00 9,0 7,9 8,4 29 16 68 37 WSW 1015,6 8 0 0,4
15.03.2019 08:00:00 8,8 7,7 8,3 29 15 55 30 W 1014,6 10 0 0,2
15.03.2019 07:00:00 8,7 7,8 8,2 26 14 47 25 W 1014,4 6 0 0,6
15.03.2019 06:00:00 8,5 7,6 8,1 20 11 40 22 WSW 1013,9 3,5 0 0,2
15.03.2019 05:00:00 8,5 7,6 7,8 20 11 41 22 WSW 1013,8 5 0 0,6
15.03.2019 04:00:00 8,0 7,1 7,0 18 10 34 18 WSW 1014,1 5 0 1,4
15.03.2019 03:00:00 7,6 6,2 6,9 15 8 29 16 W 1014,7 20 0 0,0
15.03.2019 02:00:00 7,6 6,1 6,8 18 10 42 23 W 1015,2 20 0 0,0
15.03.2019 01:00:00 7,8 6,1 6,9 23 13 42 23 W 1014,7 20 0 0,0
15.03.2019 00:00:00 7,6 6,1 6,2 15 8 57 31 W 1014,3 20 0 0,8
14.03.2019 23:00:00 8,1 6,4 7,3 25 14 51 28 W 1013,7 20 0 1,0
14.03.2019 22:00:00 8,2 6,7 7,5 27 14 61 33 W 1012,6 20 0 0,0
14.03.2019 21:00:00 8,0 6,8 7,2 29 16 65 35 W 1011,8 7 0 0,8
14.03.2019 20:00:00 7,7 6,5 6,9 34 18 61 33 W 1010,7 4,8 0 0,8
14.03.2019 19:00:00 7,5 6,1 6,8 33 18 74 40 W 1010,3 12 0 0,2
14.03.2019 18:00:00 7,2 6,0 6,4 37 20 63 34 WSW 1009,9 7 0 0,2
14.03.2019 17:00:00 6,7 5,5 5,9 33 18 59 32 WSW 1010,2 4,2 0 1,2
14.03.2019 16:00:00 6,0 5,0 5,2 27 15 53 28 WSW 1010,7 3,4 0 1,4
14.03.2019 15:00:00 5,2 4,0 3,9 27 14 62 34 WSW 1011,4 3,5 0 2,2
14.03.2019 14:00:00 4,2 2,9 3,6 27 15 58 32 SW 1012,6 9 0 2,6
14.03.2019 13:00:00 3,9 2,4 3,6 29 16 57 31 SW 1013,4 11 0 2,9
14.03.2019 12:00:00 4,2 2,7 3,9 28 15 57 31 SW 1014,7 10 0 1,6
14.03.2019 11:00:00 4,4 3,1 4,0 23 13 50 27 WSW 1015,7 16 0 1,2
14.03.2019 10:00:00 4,2 3,0 3,4 23 12 44 24 SW 1016,5 14 0 0,6
14.03.2019 09:00:00 3,5 2,2 3,0 22 12 44 24 SW 1017,3 18 0 0,8
14.03.2019 08:00:00 3,2 2,0 2,6 18 10 33 18 SW 1017,9 10 0 0,6
14.03.2019 07:00:00 2,9 1,6 2,6 16 9 34 18 SW 1018,3 15 0 0,4
14.03.2019 06:00:00 3,3 1,8 2,8 17 9 31 17 WSW 1018,9 6 0 0,4
14.03.2019 05:00:00 3,5 1,5 3,3 16 9 34 18 WSW 1019,4 20 0 0,0
14.03.2019 04:00:00 3,5 1,4 3,0 21 11 41 22 WSW 1019,7 20 0 0,0
14.03.2019 03:00:00 3,6 1,3 3,3 18 10 35 19 WSW 1019,8 20 0 0,0
14.03.2019 02:00:00 3,8 1,0 3,4 19 10 34 18 W 1020,0 20 0 0,0
14.03.2019 01:00:00 3,7 1,2 2,8 18 10 34 18 W 1019,6 20 0 0,0
14.03.2019 00:00:00 3,7 1,4 2,8 20 11 38 20 W 1019,2 20 0 0,0
13.03.2019 23:00:00 3,7 1,6 2,5 18 10 35 19 WSW 1018,7 20 0 0,0
13.03.2019 22:00:00 4,0 1,5 2,8 20 11 47 25 W 1018,1 20 0 0,0
13.03.2019 21:00:00 4,3 1,8 3,0 25 13 43 23 W 1017,5 20 0 0,0
13.03.2019 20:00:00 4,2 1,9 3,0 19 11 42 23 W 1016,9 20 0 0,0
13.03.2019 19:00:00 4,6 2,8 3,1 22 12 49 26 WSW 1016,2 12 0 2,6
13.03.2019 18:00:00 5,6 1,7 4,1 28 15 57 31 W 1015,7 10 12 0,0
13.03.2019 17:00:00 6,5 0,8 5,7 26 14 55 30 WSW 1014,9 19 1 0,0
13.03.2019 16:00:00 7,3 0,5 4,4 26 14 52 28 WSW 1015,0 20 11 0,0
13.03.2019 15:00:00 5,3 0,5 4,0 30 16 56 31 WSW 1015,6 12 2 0,2

tt = Température de l'air
td = dewpoint
tt 5cm = Température de l'air 5cm
ff = Vitesse du vent
fx = gusts
dd = Direction du vent
ppp = reduced air pressure
vv = visibility
sd = Ensoleillement
rr = Quantités de précipitations

stations d'obs. à proximité